Miscellaneous Local Product
Issued by NWS Hastings, NE

Home | Current Version | Previous Version | Graphics & Text | Print | Product List | Glossary On
Versions: 1 2 3 4 5 6 7 8 9 10 11 12 13 14 15 16 17 18 19 20 21 22 23 24 25 26 27 28 29 30 31 32 33 34 35 36 37 38 39 40 41 42 43 44 45 46 47 48 49 50
000
AXUS43 KGID 230502
MISGRI

GID CWA HOURLY WEATHER ROUNDUP
NATIONAL WEATHER SERVICE HASTINGS NE
1200 AM CDT WED MAY 23 2018

NOTE: "FAIR" INDICATES FEW OR NO CLOUDS BELOW 12,000 FEET WITH NO
SIGNIFICANT WEATHER AND/OR OBSTRUCTIONS TO VISIBILITY.

...SOUTH CENTRAL NEBRASKA...

CITY           SKY/WX    TMP DP  RH WIND       PRES   REMARKS
GRAND ISLAND   PTCLDY    73  61  65 S13       29.96S
KEARNEY        CLOUDY    73  63  70 S18G24    29.96S
HASTINGS       CLEAR     74  63  68 S8        29.98R
ORD            CLOUDY    73  63  70 S8        29.93F
YORK           PTCLDY    73  66  78 S10       29.98S
AURORA         PTCLDY    72  63  72 S12       29.97S
LEXINGTON      MOCLDY    72  63  72 S14       29.95S
HOLDREGE       MOCLDY    72  63  73 SE10      29.96S
HEBRON         PTCLDY    74  64  69 S9        29.98S

...NEBRASKA PANHANDLE...

CITY           SKY/WX    TMP DP  RH WIND       PRES   REMARKS
CHADRON        CLOUDY    58  55  90 NE9       29.92S
ALLIANCE       MOCLDY    59  58  96 SE8       29.90S
SCOTTSBLUFF    CLOUDY    64  56  75 SW6       29.94R
SIDNEY         MOCLDY    62  54  74 SW7       29.94R

...WESTERN AND NORTH CENTRAL NEBRASKA...

CITY           SKY/WX    TMP DP  RH WIND       PRES   REMARKS
VALENTINE      RAIN      67  61  81 S16G39    29.96R
AINSWORTH      TSTM      67  59  75 SE14G20   29.94S
ONEILL         MOCLDY    74  65  74 SE6       29.95S
BROKEN BOW     MOCLDY    70  58  65 SE7       29.95S
IMPERIAL       CLOUDY    69  53  56 SE17      29.90S
NORTH PLATTE   PTCLDY    64  57  78 SE9       29.93S
MCCOOK         MOCLDY    69  56  62 SE10      29.93S

...EASTERN NEBRASKA...

CITY           SKY/WX    TMP DP  RH WIND       PRES   REMARKS
NORFOLK        CLOUDY    74  62  66 S14       29.95S
SO SIOUX CITY  CLOUDY    67  64  90 E9        29.96S
TEKAMAH        PTCLDY    70  65  84 SE12      29.97R
COLUMBUS       MOCLDY    74  63  68 S12       29.97R
ALBION         CLOUDY    74  62  66 SE10      29.96S
OMAHA EPPLEY   MOCLDY    74  63  68 S9        29.98S
OFFUTT AFB     MOCLDY    71  64  80 SE5       29.98R
MILLARD        MOCLDY    73  64  72 SE3       29.99R
LINCOLN        CLEAR     74  62  66 S9        29.98S
NEBRASKA CITY  PTCLDY    72  63  73 S8        30.01S
BEATRICE       PTCLDY    75  65  70 SE8       29.99F
FALLS CITY     CLOUDY    73  63  70 S9        30.00S

...NORTHERN KANSAS...

CITY           SKY/WX    TMP DP  RH WIND       PRES   REMARKS
GOODLAND       CLOUDY    69  55  60 S23G35    29.93S
HILL CITY      CLEAR     74  64  71 S13       29.95R
NORTON         CLEAR     73  63  68 SE12G17   29.95S
PHILLIPSBURG   CLEAR     75  63  64 SE9       29.96S
SMITH CENTER     N/A     72  63  73 SE14      29.97S
HAYS           PTCLDY    75  62  64 S15       29.97R
RUSSELL        CLOUDY    76  64  66 S18G24    29.96S
CONCORDIA      CLEAR     73  63  70 SE10      29.98R
SALINA         PTCLDY    74  64  71 SE8       29.98S
TOPEKA         CLOUDY    71  68  90 CALM      30.02R



USA.gov is the U.S. government's official web portal to all federal, state and local government web resources and services.